Frederick, MD

1:51 PM EDT on May 26, 2017 (GMT -0400)
Frederick Municipal

Weather History for KFDK - March, 2013

Change the Weather History Date:

Tuesday, March 26, 2013

  Actual Average (KHGR) Record (KHGR)
Temperature  
Mean Temperature 40 °F -  
Max Temperature 51 °F 53 °F 75 °F (2004)
Min Temperature 28 °F 36 °F 21 °F (2001)
Degree Days  
Heating Degree Days 26    
Moisture  
Dew Point 31 °F    
Average Humidity 81    
Maximum Humidity 100    
Minimum Humidity 41    
Precipitation  
Precipitation 0.00 in - - ()
Sea Level Pressure  
Sea Level Pressure 29.85 in    
Wind  
Wind Speed 4 mph (WNW)    
Max Wind Speed 18 mph    
Max Gust Speed 29 mph    
Visibility 8 miles    
Events Fog    
Averages and records for this station are not official NWS values.
T = Trace of Precipitation, MM = Missing Value Source: NWS Daily Summary

Daily Weather History Graph

Daily Weather History Graph

Search for Another Location

Airport or City:

Trip Planner

Search our weather history database for the weather conditions in past years. The results will help you decide how hot, cold, wet, or windy it might be!

Date:

Astronomy

Mar. 26, 2013 Rise Set
Actual Time 7:02 AM EDT 7:27 PM EDT
Civil Twilight 6:36 AM EDT 7:54 PM EDT
Nautical Twilight 6:04 AM EDT 8:26 PM EDT
Astronomical Twilight 5:32 AM EDT 8:58 PM EDT
Moon 7:02 PM EDT 6:18 AM EDT
Length of Visible Light 13h 18m
Length of Day
12h 24m
Waxing Gibbous, 99% of the Moon is Illuminated
Mar 26
Waxing Gibbous
Mar 27
Full
Apr 3
Last Quarter
Apr 10
New
Apr 18
First Quarter

Hourly Weather History & Observations

Time (EDT) Temp. Windchill Dew Point Humidity Pressure Visibility Wind Dir Wind Speed Gust Speed Precip Events Conditions
12:15 AM 32.0 °F - 32.0 °F 100% 29.73 in 2.5 mi Calm Calm - N/A   Overcast
12:35 AM 32.0 °F - 32.0 °F 100% 29.73 in 3.0 mi Calm Calm - N/A   Overcast
12:55 AM 32.0 °F - 32.0 °F 100% 29.74 in 3.0 mi Calm Calm - N/A   Overcast
1:15 AM 32.0 °F 27.5 °F 32.0 °F 100% 29.74 in 4.0 mi WSW 4.6 mph - N/A   Overcast
1:35 AM 32.0 °F 27.5 °F 32.0 °F 100% 29.75 in 5.0 mi SW 4.6 mph - N/A   Overcast
1:55 AM 32.0 °F 28.7 °F 32.0 °F 100% 29.75 in 5.0 mi WSW 3.5 mph - N/A   Overcast
2:15 AM 32.0 °F 27.5 °F 32.0 °F 100% 29.76 in 10.0 mi West 4.6 mph - N/A   Overcast
2:35 AM 32.0 °F 27.5 °F 32.0 °F 100% 29.76 in 10.0 mi West 4.6 mph - N/A   Overcast
2:55 AM 32.0 °F 28.7 °F 32.0 °F 100% 29.76 in 7.0 mi West 3.5 mph - N/A   Overcast
3:15 AM 32.0 °F - 32.0 °F 100% 29.77 in 10.0 mi Calm Calm - N/A   Overcast
3:35 AM 32.0 °F - 32.0 °F 100% 29.77 in 10.0 mi Calm Calm - N/A   Overcast
3:55 AM 32.0 °F - 32.0 °F 100% 29.77 in 4.0 mi Calm Calm - N/A   Overcast
4:15 AM 30.2 °F - 30.2 °F 100% 29.77 in 3.0 mi Calm Calm - N/A   Overcast
4:35 AM 32.0 °F - 32.0 °F 100% 29.78 in 4.0 mi Calm Calm - N/A   Mostly Cloudy
4:55 AM 30.2 °F - 30.2 °F 100% 29.78 in 1.2 mi Calm Calm - N/A   Scattered Clouds
5:15 AM 28.4 °F - 28.4 °F 100% 29.79 in 0.5 mi Calm Calm - N/A Fog Light Freezing Fog
5:35 AM 30.2 °F - 30.2 °F 100% 29.79 in 1.5 mi Calm Calm - N/A   Mostly Cloudy
5:55 AM 30.2 °F 26.7 °F 30.2 °F 100% 29.80 in 2.5 mi South 3.5 mph - N/A   Mostly Cloudy
6:15 AM 30.2 °F - 30.2 °F 100% 29.80 in 4.0 mi Calm Calm - N/A   Overcast
6:35 AM 30.2 °F - 30.2 °F 100% 29.81 in 4.0 mi Calm Calm - N/A   Overcast
6:45 AM 32.0 °F - 32.0 °F 100% 29.82 in 10.0 mi Calm Calm - N/A   Overcast
6:48 AM 32.0 °F - 32.0 °F 100% 29.82 in 10.0 mi Calm Calm - N/A   Overcast
7:52 AM 32.0 °F - 32.0 °F 100% 29.84 in 10.0 mi Calm Calm - N/A   Scattered Clouds
8:50 AM 37.4 °F - 35.6 °F 93% 29.86 in 10.0 mi Calm Calm - N/A   Scattered Clouds
9:45 AM 41.0 °F 35.2 °F 33.8 °F 76% 29.87 in 10.0 mi NNW 9.2 mph - N/A   Scattered Clouds
10:52 AM 42.8 °F 38.6 °F 32.0 °F 66% 29.89 in 10.0 mi North 6.9 mph 16.1 mph N/A   Clear
11:50 AM 42.8 °F 36.2 °F 32.0 °F 66% 29.90 in 10.0 mi NW 12.7 mph 17.3 mph N/A   Mostly Cloudy
12:45 PM 44.6 °F 39.7 °F 30.2 °F 57% 29.90 in 10.0 mi NNW 9.2 mph 19.6 mph N/A   Mostly Cloudy
1:46 PM 48.2 °F - 30.2 °F 50% 29.89 in 10.0 mi NNW 6.9 mph - N/A   Mostly Cloudy
2:47 PM 48.2 °F - 28.4 °F 46% 29.88 in 10.0 mi NNW 11.5 mph 19.6 mph N/A   Mostly Cloudy
3:50 PM 51.8 °F - 28.4 °F 41% 29.87 in 10.0 mi NW 10.4 mph 18.4 mph N/A   Mostly Cloudy
4:51 PM 48.2 °F - 30.2 °F 50% 29.88 in 10.0 mi NW 18.4 mph 25.3 mph N/A   Mostly Cloudy
5:59 PM 48.2 °F - 30.2 °F 50% 29.91 in 10.0 mi NNW 18.4 mph 23.0 mph N/A   Mostly Cloudy
6:45 PM 46.4 °F 40.1 °F 30.2 °F 53% 29.92 in 10.0 mi NNW 15.0 mph 23.0 mph N/A   Mostly Cloudy
7:52 PM 44.6 °F 41.4 °F 28.4 °F 53% 29.95 in 10.0 mi WNW 5.8 mph - N/A   Mostly Cloudy
9:00 PM 42.8 °F 38.6 °F 30.2 °F 61% 29.98 in 10.0 mi WNW 6.9 mph - N/A   Overcast
9:20 PM 42.8 °F - 28.4 °F 57% 29.99 in 10.0 mi Calm Calm - N/A   Overcast
9:40 PM 42.8 °F 41.1 °F 30.2 °F 61% 29.99 in 10.0 mi SE 3.5 mph - N/A   Overcast
10:00 PM 42.8 °F 40.1 °F 30.2 °F 61% 30.00 in 10.0 mi NE 4.6 mph - N/A   Overcast
10:20 PM 42.8 °F 35.8 °F 30.2 °F 61% 30.01 in 10.0 mi North 13.8 mph 20.7 mph N/A   Overcast
10:40 PM 42.8 °F 35.8 °F 30.2 °F 61% 30.00 in 10.0 mi WNW 13.8 mph 25.3 mph N/A   Overcast
11:00 PM 42.8 °F 35.1 °F 30.2 °F 61% 30.00 in 10.0 mi WNW 16.1 mph 28.8 mph N/A   Overcast
11:20 PM 41.0 °F 33.1 °F 30.2 °F 65% 30.00 in 10.0 mi WNW 15.0 mph 26.5 mph N/A   Overcast
11:40 PM 41.0 °F 35.2 °F 30.2 °F 65% 30.01 in 10.0 mi WNW 9.2 mph 26.5 mph N/A   Overcast